User: anonymous   Login
Location: Roanoke
(37.2710°N, 79.9420°W)
Time: 23:57:05
(UTC-04:00)
Language:

FENGYUN 3A - Orbit

View from above orbital plane
View from above orbital plane
View from above satellite
View from above satellite

Ground track
Ground track

The orbit data is extracted from the following two-line orbital elements,

1 32958U 08026A   15086.13609207  .00000097  00000-0  65978-4 0  9996
2 32958 098.5134 139.8406 0010422 115.4433 244.7819 14.19538185353988
Epoch (UTC): 27 March 2015 03:15:58
Eccentricity: 0.0010422
inclination: 98.5134°
perigee height: 819 km
apogee height: 834 km
right ascension of ascending node: 139.8406°
argument of perigee: 115.4433°
revolutions per day: 14.19538185
mean anomaly at epoch: 244.7819°
orbit number at epoch: 35398

The dashed part of the orbit path shows where the satellite is in the earth's shadow,  

DLR